SERIAL,TIME,MODEL,SN(OPTODE),OXYGEN,SATURATION,TEMPERATURE,CALPHASE,TCPHASE,C1RPH,C2RPH,C1AMP,C2AMP,RAWTEMP,CHECK
1,1312747461,4330,354,199.9736938476562500,61.1257286071777340,13.2214698791503900,34.4808883666992200,36.7806587219238300,39.7709999084472660,2.9903340339660645,702.3629150390625000,739.9885253906250000,221.7810058593750000,23571
1,1312751049,4330,354,199.8211975097656200,61.0687789916992200,13.2138795852661130,34.4940681457519500,36.7934989929199200,39.7660217285156250,2.9725189208984375,702.5042724609375000,740.0336914062500000,222.0352020263672000,55884
1,1312754649,4330,354,199.2135009765625000,60.8813095092773440,13.2125797271728520,34.5312805175781250,36.8297386169433600,39.7902107238769500,2.9604640007019043,703.5750732421875000,740.1210937500000000,222.0787963867187500,54052
1,1312758249,4330,354,200.1047058105468800,61.1282196044921900,13.1939201354980470,34.4869003295898440,36.7865104675293000,39.7486114501953100,2.9620969295501710,702.1561279296875000,740.0740966796875000,222.7035064697265600,58340
1,1312761849,4330,354,200.1842041015625000,61.1548805236816400,13.1956396102905270,34.4810905456543000,36.7808609008789060,39.7343101501464840,2.9534530639648438,701.9727783203125000,740.0551147460938000,222.6457977294922000,14275
1,1312765449,4330,354,199.1448059082031200,60.8355484008789060,13.1943397521972660,34.5450286865234400,36.8431396484375000,39.7968406677246100,2.9537050724029540,703.5167236328125000,740.0045166015625000,222.6893005371093800,32310
1,1312769049,4330,354,199.8365020751953000,61.0412788391113300,13.1902599334716800,34.5050811767578100,36.8042297363281250,39.7513885498046900,2.9471590518951416,702.6087036132812000,740.1531982421875000,222.8262023925781200,42442
1,1312772649,4330,354,199.4794006347656200,60.9210891723632800,13.1820802688598630,34.5305099487304700,36.8289909362793000,39.7837409973144500,2.9547419548034670,703.0861206054688000,740.0914916992188000,223.1000061035156200,55472
1,1312776249,4330,354,198.6154937744140600,60.6533393859863300,13.1791601181030270,34.5847892761230500,36.8818702697753900,39.8280181884765600,2.9461519718170166,704.6119995117188000,740.1752929687500000,223.1976928710937500,48217
1,1312779849,4330,354,200.8789978027343800,61.3598785400390600,13.1903600692749020,34.4417915344238300,36.7425804138183600,39.6900901794433600,2.9475169181823730,701.1519165039062000,740.2274169921875000,222.8229064941406200,7235
1,1312783449,4330,354,199.2409057617187500,60.8550415039062500,13.1870603561401370,34.5427589416503900,36.8409309387207000,39.7896881103515600,2.9487609863281250,703.6160888671875000,740.2700195312500000,222.9333038330078000,44186
1,1312787049,4330,354,199.6623992919922000,60.9805793762207000,13.1847200393676760,34.5186080932617200,36.8174095153808600,39.7631988525390600,2.9457929134368896,703.0037841796875000,740.1754150390625000,223.0115966796875000,51707
1,1312790649,4330,354,200.5115051269531200,61.2422714233398440,13.1864299774169920,34.4660606384277340,36.7662200927734400,39.7129402160644500,2.9467160701751710,701.5556030273438000,740.1090087890625000,222.9542999267578000,23948
1,1312794249,4330,354,199.9752960205078000,61.0873107910156250,13.1928901672363280,34.4951591491699200,36.7945594787597660,39.7342185974121100,2.9396591186523438,702.2822875976562000,740.0869750976562000,222.7380065917968800,40357
1,1312797849,4330,354,198.3990936279297000,60.6052017211914060,13.1924400329589840,34.5913810729980500,36.8882904052734400,39.8266105651855500,2.9383239746093750,704.6718139648438000,740.0905151367188000,222.7530059814453000,28848
1,1312801449,4330,354,199.2888031005859400,60.8779182434082000,13.1931400299072270,34.5365715026855500,36.8348999023437500,39.7785911560058600,2.9436950683593750,703.2792968750000000,740.0582885742188000,222.7295989990234400,3763
1,1312805049,4330,354,200.0702972412109400,61.1156311035156250,13.1923904418945310,34.4898605346679700,36.7893981933593750,39.7273597717285160,2.9379580020904540,702.1134033203125000,739.9918823242188000,222.7545928955078000,43343
1,1312808649,4330,354,200.1463928222656200,61.1531486511230500,13.2028398513793950,34.4799308776855500,36.7797203063964840,39.7157402038574200,2.9360198974609375,701.8032836914062000,739.9199829101562000,222.4046936035156200,44747
1,1312812249,4330,354,198.7942047119140600,60.7550010681152340,13.2139396667480470,34.5560913085937500,36.8539085388183600,39.7937889099121100,2.9398798942565920,703.6619873046875000,739.8031005859375000,222.0332031250000000,38539
1,1312815849,4330,354,197.2834930419922000,60.2917709350585940,13.2127895355224610,34.6490402221679700,36.9444618225097660,39.8779106140136700,2.9334559440612793,705.8787231445312000,739.7094116210938000,222.0715026855468800,59486
1,1312819449,4330,354,197.8444976806640600,60.4489517211914060,13.2022199630737300,34.6199989318847660,36.9161682128906250,39.8531494140625000,2.9369809627532960,705.2650756835938000,739.8549804687500000,222.4255981445312500,31517
1,1312823049,4330,354,197.4936065673828000,60.3414497375488300,13.2019901275634770,34.6415481567382800,36.9371604919433600,39.8785591125488300,2.9413990974426270,705.7435913085938000,739.8610229492188000,222.4333038330078000,26775
1,1312826649,4330,354,197.0140991210937500,60.1934318542480500,13.2008800506591800,34.6720314025878900,36.9668502807617200,39.9090003967285160,2.9421460628509520,706.4086303710938000,739.8461914062500000,222.4705963134765600,63359
1,1312830249,4330,354,196.8117980957031200,60.1309700012207000,13.2003698348999020,34.6842308044433600,36.9787292480468750,39.9218788146972660,2.9431459903717040,706.6257934570312000,739.7791137695312000,222.4873962402343800,52619
1,1312833849,4330,354,199.7868041992187500,61.0429611206054700,13.2026500701904300,34.5016517639160160,36.8008804321289060,39.7384796142578100,2.9375989437103270,702.1229248046875000,739.7166748046875000,222.4113006591797000,1761
1,1312837449,4330,354,199.3442993164062500,60.9215087890625000,13.2127399444580080,34.5230484008789060,36.8217315673828100,39.7601318359375000,2.9384000301361084,702.6218872070312000,739.6851806640625000,222.0733032226562500,33265
1,1312841049,4330,354,198.3040008544922000,60.5887603759765600,13.2017698287963870,34.5922813415527340,36.8891716003418000,39.8286895751953100,2.9395220279693604,704.3848876953125000,739.7233886718750000,222.4405975341797000,64247
1,1312844649,4330,354,199.2142028808593800,60.8495407104492200,13.1890401840209960,34.5435104370117200,36.8416595458984400,39.7796211242675800,2.9379580020904540,703.2478027343750000,739.8869018554688000,222.8670043945312500,13495
1,1312848249,4330,354,197.7758026123047000,60.3996009826660160,13.1811504364013670,34.6347389221191400,36.9305191040039060,39.8719787597656250,2.9414598941802980,705.2296142578125000,739.8455200195312000,223.1311035156250000,62052
1,1312851849,4330,354,200.2375030517578000,61.1568603515625000,13.1851902008056640,34.4832191467285160,36.7829399108886700,39.7170906066894500,2.9341509342193604,701.6254882812500000,739.6939086914062000,222.9958038330078000,49081
1,1312855449,4330,354,199.9465026855468800,61.0927581787109400,13.2033700942993160,34.4918289184570300,36.7913208007812500,39.7231788635253900,2.9318540096282960,701.6472778320312000,739.5983276367188000,222.3871002197265600,34350
1,1312859049,4330,354,199.1437988281250000,60.8681602478027340,13.2186002731323240,34.5330009460449200,36.8314208984375000,39.7631988525390600,2.9317779541015625,702.8433227539062000,739.5103759765625000,221.8769989013672000,59313
1,1312862649,4330,354,196.9029998779297000,60.1802787780761700,13.2163801193237300,34.6708793640136700,36.9657287597656250,39.8962898254394500,2.9305570125579834,706.2454833984375000,739.4406127929688000,221.9515075683593800,41376
1,1312866249,4330,354,198.3798065185547000,60.6122817993164060,13.2020702362060550,34.5876502990722660,36.8846588134765600,39.8190498352050800,2.9343869686126710,704.0466918945312000,739.5747070312500000,222.4306030273437500,21401
1,1312869849,4330,354,198.5991973876953000,60.6626701354980500,13.1897201538085940,34.5804595947265600,36.8776512145996100,39.8149681091308600,2.9373250007629395,703.9857177734375000,739.6326293945312000,222.8441925048828000,50793
1,1312873449,4330,354,198.6296997070312500,60.6696090698242200,13.1879796981811520,34.5792808532714840,36.8764991760253900,39.8125915527343750,2.9360890388488770,703.8660278320312000,739.5468139648438000,222.9022979736328000,44842
1,1312877049,4330,354,199.0646972656250000,60.8037605285644500,13.1889200210571290,34.5526390075683600,36.8505516052246100,39.7792701721191400,2.9287190437316895,703.2003173828125000,739.5784301757812000,222.8708038330078000,22980
1,1312880649,4330,354,197.9140930175781200,60.4525794982910160,13.1891298294067380,34.6223907470703100,36.9184989929199200,39.8478507995605500,2.9293589591979980,704.8909301757812000,739.5452270507812000,222.8638000488281200,60835
1,1312884249,4330,354,198.5807037353515600,60.6573295593261700,13.1899795532226560,34.5812301635742200,36.8783988952636700,39.8065490722656250,2.9281458854675293,703.8223876953125000,739.4899291992188000,222.8354949951172000,38378
1,1312887849,4330,354,199.0196990966797000,60.7922401428222660,13.1905899047851560,34.5543518066406250,36.8522186279296900,39.7836799621582000,2.9314579963684080,703.1605224609375000,739.4564208984375000,222.8148956298828000,60999
1,1312891449,4330,354,197.6083984375000000,60.3672103881835940,13.1950798034667970,34.6384811401367200,36.9341697692871100,39.8614807128906250,2.9273068904876710,705.2064208984375000,739.4616699218750000,222.6645965576172000,44110
1,1312895049,4330,354,199.0406036376953000,60.8173217773437500,13.2043600082397460,34.5459899902343750,36.8440818786621100,39.7708587646484400,2.9267809391021730,702.9016723632812000,739.3474731445312000,222.3540039062500000,28018
1,1312898649,4330,354,198.6141967773437500,60.7043609619140600,13.2171697616577150,34.5657882690429700,36.8633689880371100,39.7913818359375000,2.9280169010162354,703.4207153320312000,739.2866821289062000,221.9248962402343800,44640
1,1312902249,4330,354,195.1351013183593800,59.6471214294433600,13.2217502593994140,34.7774200439453100,37.0694999694824200,40.0007209777832000,2.9312129020690920,708.5675048828125000,739.2205200195312000,221.7716979980468800,23559
1,1312905849,4330,354,197.1578979492187500,60.2490615844726560,13.2095699310302730,34.6585502624511700,36.9537200927734400,39.8813285827636700,2.9276120662689210,705.6989135742188000,739.3347167968750000,222.1793060302734400,23212
1,1312909449,4330,354,198.2411956787109400,60.5523910522460940,13.1890697479248050,34.6024703979492200,36.8990898132324200,39.8255805969238300,2.9264829158782960,704.3734741210938000,739.5076293945312000,222.8659057617187500,49762
1,1312913049,4330,354,198.3258056640625000,60.5752716064453100,13.1868495941162110,34.5984191894531250,36.8951416015625000,39.8182106018066400,2.9230649471282960,704.1221923828125000,739.4462280273438000,222.9403076171875000,35026
1,1312916649,4330,354,197.3843994140625000,60.2911300659179700,13.1893796920776370,34.6548194885253900,36.9500808715820300,39.8818702697753900,2.9317860603332520,705.4542846679688000,739.4088134765625000,222.8556060791015600,24895
1,1312920249,4330,354,193.9871978759765600,59.2536697387695300,13.1895503997802730,34.8654098510742200,37.1552085876464840,40.0890998840332000,2.9338839054107666,710.5383911132812000,739.3212890625000000,222.8497924804687500,18104
1,1312923849,4330,354,199.7021942138672000,61.0283088684082000,13.2108297348022460,34.5027999877929700,36.8019981384277340,39.7334098815918000,2.9314119815826416,701.8704223632812000,739.3505859375000000,222.1371002197265600,42514
1,1312927449,4330,354,196.6539001464843800,60.1043090820312500,13.2164897918701170,34.6857795715332000,36.9802398681640600,39.9140281677246100,2.9337921142578125,706.3164062500000000,739.3455200195312000,221.9479064941406200,15465
1,1312931049,4330,354,194.0222015380859400,59.2994804382324200,13.2161302566528320,34.8494682312011700,37.1396903991699200,40.0752296447753900,2.9355390071868896,710.3510742187500000,739.3009033203125000,221.9598999023437500,12323
1,1312934649,4330,354,197.8670959472656200,60.4644012451171900,13.2085504531860350,34.6155090332031250,36.9118003845214840,39.8446388244628900,2.9328379631042480,704.6005249023438000,739.2830200195312000,222.2135009765625000,35688
1,1312938249,4330,354,198.6790924072265600,60.7135505676269500,13.2092895507812500,34.5659484863281250,36.8635215759277340,39.7899017333984400,2.9263839721679688,703.3599853515625000,739.2058105468750000,222.1887969970703000,64927
1,1312941849,4330,354,198.4093017578125000,60.6408691406250000,13.2165203094482420,34.5786781311035160,36.8759193420410160,39.8069000244140600,2.9309840202331543,703.5452270507812000,739.0504760742188000,221.9467010498047000,45259
1,1312945449,4330,354,198.3222045898437500,60.5992393493652340,13.2054300308227540,34.5891189575195300,36.8860893249511700,39.8183708190918000,2.9322888851165770,703.6345214843750000,739.0463256835938000,222.3180999755859400,6395
1,1312949049,4330,354,196.6343994140625000,60.0718498229980500,13.1967096328735350,34.6970291137695300,36.9911994934082000,39.9178199768066400,2.9266200065612793,706.3803710937500000,739.0911254882812000,222.6101074218750000,2216
1,1312952649,4330,354,196.9197998046875000,60.1475296020507800,13.1881303787231450,34.6839408874511700,36.9784507751464840,39.9079895019531250,2.9295349121093750,705.9224853515625000,739.1010742187500000,222.8975067138672000,23661
1,1312956249,4330,354,198.2306060791015600,60.5564117431640600,13.1944398880004880,34.6004600524902340,36.8971290588378900,39.8257102966308600,2.9285809993743896,703.9556884765625000,739.1397705078125000,222.6862030029297000,50225
1,1312959849,4330,354,197.6293945312500000,60.3822097778320300,13.2014503479003900,34.6338005065918000,36.9296112060546900,39.8540611267089840,2.9244539737701416,704.9152832031250000,738.9771728515625000,222.4515075683593800,34975
1,1312963449,4330,354,194.6045989990234400,59.4565200805664060,13.2003097534179690,34.8213195800781250,37.1122703552246100,40.0419197082519500,2.9296491146087646,709.3405151367188000,739.0324707031250000,222.4897003173828000,21750
1,1312967049,4330,354,199.4810028076172000,60.9650306701660160,13.2140302658081050,34.5148315429687500,36.8137207031250000,39.7387084960937500,2.9249880313873290,701.8795776367188000,739.0534057617188000,222.0301971435547000,10811
1,1312970649,4330,354,197.1349029541015600,60.2466392517089840,13.2130002975463870,34.6580390930175800,36.9532203674316400,39.8877716064453100,2.9345550537109375,705.5231933593750000,739.1901855468750000,222.0646057128906200,39296
1,1312974249,4330,354,199.1009063720703000,60.8551101684570300,13.2186403274536130,34.5355987548828100,36.8339500427246100,39.7572593688964840,2.9233090877532960,702.3021850585938000,738.8820800781250000,221.8757019042968800,3565
1,1312977849,4330,354,198.8858032226562500,60.7935791015625000,13.2217502593994140,34.5467910766601560,36.8448600769043000,39.7674293518066400,2.9225690364837646,702.7288818359375000,738.9138183593750000,221.7714996337890600,5074
1,1312981449,4330,354,196.1522064208984400,59.9578399658203100,13.2216300964355470,34.7141990661621100,37.0079307556152340,39.9382896423339840,2.9303669929504395,706.7750854492188000,738.8953247070312000,221.7758026123047000,15295
1,1312985049,4330,354,196.5514984130859400,60.0730285644531250,13.2165002822875980,34.6924209594726560,36.9867095947265600,39.9188117980957000,2.9320979118347170,706.2636718750000000,738.9749755859375000,221.9474029541015600,18414
1,1312988649,4330,354,199.5756988525390600,60.9635505676269500,13.1916704177856450,34.5200386047363300,36.8187904357910160,39.7455596923828100,2.9267649650573730,702.0167236328125000,739.0618286132812000,222.7790069580078000,15133
1,1312992249,4330,354,199.1607055664062500,60.8168487548828100,13.1769599914550780,34.5524291992187500,36.8503417968750000,39.7736511230468750,2.9233090877532960,702.6359863281250000,739.0117797851562000,223.2713928222656200,13896
1,1312995849,4330,354,198.5765075683593800,60.6280784606933600,13.1693201065063480,34.5921096801757800,36.8889999389648440,39.8165893554687500,2.9275889396667480,703.4453735351562000,738.9238281250000000,223.5272979736328000,13589
1,1312999449,4330,354,199.9266052246093800,61.0471916198730500,13.1743698120117190,34.5075607299804700,36.8066406250000000,39.7354698181152340,2.9288330078125000,701.3895263671875000,738.9544067382812000,223.3583068847656200,31272
1,1313003049,4330,354,199.7375030517578000,61.0038604736328100,13.1849699020385740,34.5132713317871100,36.8121986389160160,39.7367591857910160,2.9245529174804688,701.6821289062500000,738.8660888671875000,223.0030975341797000,8884
1,1313006649,4330,354,199.2375946044922000,60.8607215881347660,13.1919898986816400,34.5405197143554700,36.8387489318847660,39.7645416259765600,2.9257969856262207,702.2188110351562000,738.8416137695312000,222.7680053710937500,35656
1,1313010249,4330,354,198.5000000000000000,60.6401596069335940,13.1954898834228520,34.5836601257324200,36.8807716369628900,39.8036193847656250,2.9228520393371580,703.2888793945312000,738.7125244140625000,222.6510009765625000,23652
1,1313013849,4330,354,198.6040954589843800,60.7104911804199200,13.2239799499511720,34.5629882812500000,36.8606300354003900,39.7863616943359400,2.9257280826568604,702.9555053710938000,738.8001708984375000,221.6970977783203000,49767
1,1313017449,4330,354,197.7864990234375000,60.4771499633789060,13.2362804412841800,34.6064987182617200,36.9030189514160160,39.8284301757812500,2.9254150390625000,704.0266723632812000,738.6212768554688000,221.2852020263672000,9786
1,1313021049,4330,354,196.6694946289062500,60.1333694458007800,13.2346296310424800,34.6756896972656250,36.9704093933105500,39.8919486999511700,2.9215390682220460,705.6790771484375000,738.6063232421875000,221.3401947021484400,46329
1,1313024649,4330,354,197.2368927001953000,60.2946586608886700,13.2255201339721680,34.6456604003906250,36.9411582946777340,39.8693809509277340,2.9282228946685790,704.8729248046875000,738.6384887695312000,221.6452026367187500,55384
1,1313028249,4330,354,196.6869049072265600,60.1152610778808600,13.2171297073364260,34.6835212707519500,36.9780387878418000,39.9007987976074200,2.9227600097656250,705.8472900390625000,738.6658935546875000,221.9263000488281200,57345
1,1313031849,4330,354,196.8988037109375000,60.1696281433105500,13.2093896865844730,34.6743698120117200,36.9691200256347660,39.8901100158691400,2.9209818840026855,705.5994873046875000,738.6149902343750000,222.1855010986328000,49811
1,1313035449,4330,354,199.0046997070312500,60.7909698486328100,13.1930303573608400,34.5544395446777340,36.8523101806640600,39.7789611816406250,2.9266510009765625,702.3173828125000000,738.6187133789062000,222.7332000732422000,8811
1,1313039049,4330,354,197.3681030273437500,60.2821884155273440,13.1864700317382810,34.6574897766113300,36.9526786804199200,39.8774909973144500,2.9248049259185790,704.8098144531250000,738.5803833007812000,222.9530029296875000,3004
1,1313042649,4330,354,197.7696990966797000,60.3870010375976560,13.1731996536254880,34.6394195556640600,36.9350814819335940,39.8562011718750000,2.9211199283599854,704.5014038085938000,738.7971801757812000,223.3973999023437500,6763
1,1313046249,4330,354,199.5339965820312500,60.9475898742675800,13.1893100738525390,34.5234794616699200,36.8221397399902340,39.7437896728515600,2.9216461181640625,701.6602783203125000,738.6815185546875000,222.8578033447265600,14828
1,1313049849,4330,354,198.8455963134765600,60.7412986755371100,13.1922197341918950,34.5642395019531250,36.8618507385253900,39.7882194519043000,2.9263689517974854,702.6068725585938000,738.5850219726562000,222.7604064941406200,42293
1,1313053449,4330,354,196.9947967529297000,60.1757698059082000,13.1921195983886720,34.6776504516601560,36.9723205566406250,39.8934898376464840,2.9211730957031250,705.4631958007812000,738.6544799804688000,222.7639007568359400,18158
1,1313057049,4330,354,199.3453063964843800,60.9160804748535160,13.2085103988647460,34.5257606506347660,36.8243713378906250,39.7518882751464840,2.9275209903717040,701.8306274414062000,738.6712036132812000,222.2149047851562500,31839
1,1313060649,4330,354,197.5449981689453000,60.3662605285644500,13.2087697982788090,34.6351013183593750,36.9308815002441400,39.8580818176269500,2.9272000789642334,704.5410766601562000,738.6394042968750000,222.2064056396484400,64782
1,1313064249,4330,354,198.7863006591797000,60.7458610534668000,13.2089796066284180,34.5589599609375000,36.8567008972168000,39.7781982421875000,2.9214940071105957,702.6671752929688000,738.5623779296875000,222.1992950439453000,26639
1,1313067849,4330,354,199.0989074707031200,60.8359107971191400,13.2049303054809570,34.5418891906738300,36.8400802612304700,39.7687110900878900,2.9286270141601562,702.1046752929688000,738.5484008789062000,222.3348999023437500,12604
1,1313071449,4330,354,197.3789062500000000,60.3104400634765600,13.2049798965454100,34.6472206115722660,36.9426803588867200,39.8619499206543000,2.9192728996276855,704.7153930664062000,738.4954833984375000,222.3330993652343800,51395
1,1313075049,4330,354,198.4302978515625000,60.6345710754394500,13.2071304321289060,34.5819511413574200,36.8791007995605500,39.8030509948730500,2.9239499568939210,703.0938720703125000,738.4984741210938000,222.2610931396484400,48793
1,1313078649,4330,354,198.2236022949218800,60.5566596984863300,13.1962099075317380,34.5997810363769500,36.8964691162109400,39.8207206726074200,2.9242548942565920,703.2631835937500000,738.3900756835938000,222.6268005371093800,30203
1,1313082249,4330,354,199.2359008789062500,60.8768005371093750,13.2042303085327150,34.5345802307128900,36.8329582214355500,39.7627410888671900,2.9297790527343750,701.6292114257812000,738.2291870117188000,222.3583984375000000,60882
1,1313085849,4330,354,196.9974060058593800,60.1946411132812500,13.2055597305297850,34.6705398559570300,36.9654006958007800,39.8906707763671900,2.9252700805664062,704.9536132812500000,738.2387695312500000,222.3137969970703000,23095
1,1313089449,4330,354,197.4682006835937500,60.3380088806152340,13.2052001953125000,34.6418609619140600,36.9374618530273440,39.8594703674316400,2.9220049381256104,704.3656005859375000,738.3048706054688000,222.3256988525390600,21099
1,1313093049,4330,354,196.9862976074218800,60.1749916076660160,13.1934499740600590,34.6769790649414060,36.9716606140136700,39.8958702087402340,2.9242100715637207,705.1445922851562000,738.3701171875000000,222.7194061279297000,589
1,1313096649,4330,354,196.0971069335937500,59.9023094177246100,13.1926803588867190,34.7323112487793000,37.0255699157714840,39.9463500976562500,2.9207839965820312,706.4921875000000000,738.4089965820312000,222.7451934814453000,13459
1,1313100249,4330,354,199.7682037353515600,61.0346183776855500,13.2006597518920900,34.5039710998535160,36.8031501770019500,39.7291717529296900,2.9260249137878420,701.0568237304688000,738.4127197265625000,222.4777984619140600,24756
1,1313103849,4330,354,197.0471038818359400,60.2049102783203100,13.2019100189208980,34.6691894531250000,36.9640808105468750,39.8824005126953100,2.9183199405670166,705.0634155273438000,738.4318237304688000,222.4360961914062500,62240
1,1313107449,4330,354,196.6067962646484400,60.0646781921386700,13.1976699829101560,34.6988182067871100,36.9929389953613300,39.9117889404296900,2.9188458919525146,705.8848266601562000,738.4816284179688000,222.5778961181640600,46741
1,1313111049,4330,354,198.4232025146484400,60.6053695678710940,13.1871299743652340,34.5926589965820300,36.8895301818847660,39.8159217834472660,2.9263839721679688,703.1226196289062000,738.4475097656250000,222.9308929443359400,53179
1,1313114649,4330,354,198.3887939453125000,60.5954093933105500,13.1875200271606450,34.5943794250488300,36.8912086486816400,39.8115806579589840,2.9203720092773438,703.1519165039062000,738.4893188476562000,222.9179992675781200,4564